Weather History for PABA - November, 2013

Change the Weather History Date:

Wednesday, November 6, 2013

  Actual Average Record
Temperature  
Mean Temperature 8 °F -  
Max Temperature 16 °F 11 °F 35 °F (2003)
Min Temperature 0 °F 2 °F -20 °F (2005)
Degree Days  
Heating Degree Days 57    
Moisture  
Dew Point 8 °F    
Average Humidity 89    
Maximum Humidity 92    
Minimum Humidity 84    
Precipitation  
Precipitation 0.00 in - - ()
Sea Level Pressure  
Sea Level Pressure 30.47 in    
Wind  
Wind Speed 16 mph (SW)    
Max Wind Speed 25 mph    
Max Gust Speed -    
Visibility 7 miles    
Events Fog , Snow    
Averages and records for this station are not official NWS values.
T = Trace of Precipitation, MM = Missing Value Source: NWS Daily Summary

Daily Weather History Graph

Daily Weather History Graph

Search for Another Location

Airport or City:

Trip Planner

Search our weather history database for the weather conditions in past years. The results will help you decide how hot, cold, wet, or windy it might be!

Date:

Astronomy

Nov. 06, 2013 Rise Set
Actual Time 9:35 AM AKST 2:59 PM AKST
Civil Twilight 8:13 AM AKST 4:21 PM AKST
Nautical Twilight 6:55 AM AKST 5:38 PM AKST
Astronomical Twilight 5:44 AM AKST 6:49 PM AKST
Moon 2:38 PM AKST (11/6) 4:37 PM AKST (11/6)
Length of Visible Light 8h 07m
Length of Day
5h 23m
Waxing Crescent, 15% of the Moon is Illuminated
Nov 6
Waxing Crescent
Nov 9
First Quarter
Nov 17
Full
Nov 25
Last Quarter
Dec 2
New

Hourly Weather History & Observations

Time (AKST) Temp. Windchill Dew Point Humidity Pressure Visibility Wind Dir Wind Speed Gust Speed Precip Events Conditions
12:01 AM 16.0 °F -1.7 °F 12.9 °F 88% 30.36 in 9.0 mi West 21.9 mph - 0.00 in Snow Light Snow
1:01 AM 16.0 °F -2.8 °F 12.0 °F 84% 30.39 in 9.0 mi West 25.3 mph - 0.00 in   Overcast
2:01 AM 15.1 °F -2.5 °F 12.0 °F 88% 30.40 in 9.0 mi West 20.7 mph - 0.00 in Snow Light Snow
3:01 AM 16.0 °F -1.7 °F 12.0 °F 84% 30.43 in 9.0 mi West 21.9 mph - 0.00 in Snow Light Snow
3:11 AM 15.8 °F -1.5 °F 12.2 °F 86% 30.42 in 9.0 mi West 20.7 mph - 0.00 in Snow Light Snow
3:18 AM 15.8 °F -0.2 °F 12.2 °F 86% 30.42 in 9.0 mi West 17.3 mph - 0.00 in Snow Light Snow
4:01 AM 15.1 °F -2.5 °F 12.0 °F 88% 30.44 in 9.0 mi West 20.7 mph - 0.00 in Snow Light Snow
5:01 AM 15.1 °F -2.9 °F 12.0 °F 88% 30.47 in 9.0 mi West 21.9 mph - 0.00 in Snow Light Snow
6:01 AM 15.1 °F -1.6 °F 12.0 °F 88% 30.48 in 9.0 mi West 18.4 mph - 0.00 in Snow Light Snow
6:08 AM 15.8 °F -0.6 °F 12.2 °F 86% 30.48 in 9.0 mi West 18.4 mph - 0.00 in Snow Light Snow
6:23 AM 15.8 °F -0.2 °F 12.2 °F 86% 30.48 in 10.0 mi West 17.3 mph - 0.00 in   Overcast
7:01 AM 15.1 °F -1.1 °F 12.9 °F 91% 30.49 in 9.0 mi West 17.3 mph - 0.00 in Snow Light Snow
8:01 AM 15.1 °F -0.1 °F 12.9 °F 91% 30.50 in 9.0 mi West 15.0 mph - 0.00 in Snow Light Snow
8:17 AM 15.8 °F 1.4 °F 12.2 °F 86% 30.50 in 9.0 mi West 13.8 mph - 0.00 in Snow Light Snow
9:01 AM 15.1 °F -0.1 °F 12.9 °F 91% 30.51 in 6.0 mi West 15.0 mph - 0.00 in Snow Light Snow
9:10 AM 15.8 °F 1.4 °F 12.2 °F 86% 30.51 in 6.0 mi West 13.8 mph - 0.00 in Snow Light Snow
9:17 AM 15.8 °F 2.1 °F 12.2 °F 86% 30.51 in 9.0 mi WNW 12.7 mph - 0.00 in Snow Light Snow
9:24 AM 15.8 °F 1.4 °F 12.2 °F 86% 30.52 in 9.0 mi WNW 13.8 mph - 0.00 in Snow Light Snow
10:01 AM 15.1 °F 2.5 °F 12.9 °F 91% 30.52 in 9.0 mi WNW 10.4 mph - 0.00 in Snow Light Snow
11:01 AM 14.0 °F 2.9 °F 12.0 °F 92% 30.52 in 4.0 mi WNW 8.1 mph - 0.00 in Snow Light Snow
12:01 PM 12.9 °F 3.8 °F 10.0 °F 88% 30.52 in 10.0 mi WNW 5.8 mph - 0.00 in   Clear
1:01 PM 12.0 °F 4.1 °F 10.0 °F 92% 30.52 in 10.0 mi NW 4.6 mph - N/A   Scattered Clouds
1:19 PM 10.4 °F -0.4 °F 8.6 °F 92% 30.52 in 10.0 mi SSW 6.9 mph - N/A   Mostly Cloudy
1:40 PM 8.6 °F -2.6 °F 5.0 °F 85% 30.51 in 1.0 mi SW 6.9 mph - 0.00 in Snow Light Snow
1:52 PM 6.8 °F -3.5 °F 3.2 °F 85% 30.51 in 9.0 mi SSW 5.8 mph - 0.00 in Snow Light Snow
2:01 PM 7.0 °F -4.5 °F 3.9 °F 87% 30.51 in 9.0 mi SW 6.9 mph - 0.00 in Snow Light Snow
3:01 PM 6.1 °F -0.9 °F 3.0 °F 87% 30.51 in 10.0 mi West 3.5 mph - 0.00 in   Clear
3:39 PM 5.0 °F -5.6 °F 1.4 °F 85% 30.50 in 1.0 mi South 5.8 mph - N/A   Mist
3:47 PM 3.2 °F -10.3 °F 1.4 °F 92% 30.50 in 4.0 mi South 8.1 mph - N/A   Scattered Clouds
3:49 PM 3.2 °F -9.1 °F 1.4 °F 92% 30.49 in 1.8 mi South 6.9 mph - N/A   Mostly Cloudy
3:58 PM 3.2 °F -7.8 °F -0.4 °F 85% 30.49 in 3.0 mi South 5.8 mph - N/A   Mostly Cloudy
4:01 PM 3.2 °F -7.8 °F -0.4 °F 85% 30.49 in 9.0 mi South 5.8 mph - N/A   Scattered Clouds
4:07 PM 3.0 °F -6.4 °F -0.9 °F 84% 30.49 in 10.0 mi SSE 4.6 mph - N/A   Scattered Clouds
4:27 PM -0.4 °F -13.4 °F -4.0 °F 85% 30.49 in 10.0 mi South 6.9 mph - N/A   Mostly Cloudy
5:01 PM 1.4 °F -9.9 °F -2.2 °F 85% 30.47 in 10.0 mi South 5.8 mph - N/A   Overcast
5:33 PM 5.0 °F -5.6 °F 3.2 °F 92% 30.47 in 9.0 mi South 5.8 mph - 0.00 in Snow Light Snow
5:57 PM 10.4 °F -2.4 °F 8.6 °F 92% 30.46 in 1.5 mi SE 9.2 mph - 0.00 in Snow Light Snow
6:01 PM 10.4 °F -1.5 °F 8.6 °F 92% 30.46 in 0.8 mi SE 8.1 mph - 0.00 in Snow Light Snow
6:10 PM 10.4 °F -0.4 °F 8.6 °F 92% 30.46 in 0.5 mi ESE 6.9 mph - 0.00 in Fog , Snow Light Snow
6:36 PM 10.4 °F -0.4 °F 8.6 °F 92% 30.46 in 2.5 mi East 6.9 mph - 0.00 in Snow Light Snow
6:43 PM 10.4 °F -0.4 °F 8.6 °F 92% 30.46 in 9.0 mi East 6.9 mph - 0.00 in Snow Light Snow
7:01 PM 10.0 °F -4.5 °F 8.1 °F 92% 30.46 in 9.0 mi ESE 11.5 mph - 0.00 in Snow Light Snow
7:11 PM 10.4 °F -4.8 °F 8.6 °F 92% 30.46 in 5.0 mi East 12.7 mph - 0.00 in Snow Light Snow
8:01 PM 10.9 °F -7.5 °F 9.0 °F 92% 30.44 in 8.0 mi East 19.6 mph - 0.00 in Snow Light Snow
8:13 PM 10.4 °F -8.2 °F 8.6 °F 92% 30.44 in 1.8 mi ESE 19.6 mph - 0.00 in Snow Light Snow
8:28 PM 10.4 °F -7.7 °F 8.6 °F 92% 30.43 in 2.0 mi ESE 18.4 mph - 0.00 in Snow Light Snow
8:41 PM 10.4 °F -7.7 °F 8.6 °F 92% 30.43 in 5.0 mi East 18.4 mph - 0.00 in Snow Light Snow
8:52 PM 10.4 °F -6.6 °F 8.6 °F 92% 30.43 in 7.0 mi East 16.1 mph - 0.00 in Snow Light Snow
9:01 PM 10.0 °F -8.1 °F 8.1 °F 92% 30.42 in 8.0 mi East 18.4 mph - 0.00 in Snow Light Snow
9:16 PM 10.4 °F -7.7 °F 8.6 °F 92% 30.42 in 5.0 mi ESE 18.4 mph - 0.00 in Snow Light Snow
10:01 PM 10.9 °F -6.5 °F 9.0 °F 92% 30.41 in 9.0 mi East 17.3 mph - 0.00 in Snow Light Snow
11:01 PM 10.9 °F -7.9 °F 8.1 °F 88% 30.39 in 6.0 mi East 20.7 mph - 0.00 in Snow Light Snow